User: anonymous   Login
Location: Caltech
(34.1382°N, 118.1253°W)
Time: 20:26:02
(UTC-07:00)
Language:

NOSS 3-2 (A) - Orbit

View from above orbital plane
View from above orbital plane
View from above satellite
View from above satellite

Ground track
Ground track

The orbit data is extracted from the following two-line orbital elements,

1 28095U 03054A   16271.04252221 0.00000000  00000-0  00000-0 0    04
2 28095  63.4254 263.9585 0283000 357.9330   2.0670 13.41339030    03
Epoch (UTC): 27 September 2016 01:01:13
Eccentricity: 0.0283000
inclination: 63.4254°
perigee height: 892 km
apogee height: 1316 km
right ascension of ascending node: 263.9585°
argument of perigee: 357.9330°
revolutions per day: 13.41339030
mean anomaly at epoch: 2.0670°
orbit number at epoch: 0

The dashed part of the orbit path shows where the satellite is in the earth's shadow,  

DLR